GW4712 Weather Reports


time (UTC)temp
C
wind
direction
speed
KPH
gust
KPH
rain 1hr
cm
rain 24hr
cm
rain mn
cm
humidity
%
barometer
mb
20260509222505 21 247 6.4 6.4 0.00 0.00 0.00 53 1009.5
20260509222001 21 273 1.6 9.7 0.00 0.00 0.00 51 1009.5
20260509221457 21 311 6.4 11.3 0.00 0.00 0.00 53 1009.6
20260509220953 21 272 1.6 4.8 0.00 0.00 0.00 54 1009.6
20260509220444 21 232 6.4 6.4 0.00 0.00 0.00 55 1009.7
20260509215940 20 323 3.2 17.7 0.00 0.00 0.00 56 1009.5
20260509215435 20 249 4.8 11.3 0.00 0.00 0.00 55 1009.5
20260509214933 21 297 4.8 9.7 0.00 0.00 0.00 55 1009.6
20260509214430 21 319 11.3 16.1 0.00 0.00 0.00 53 1009.8
20260509213927 21 256 6.4 11.3 0.00 0.00 0.00 54 1009.5
20260509213422 21 312 6.4 9.7 0.00 0.00 0.00 55 1009.6
20260509212921 20 238 4.8 4.8 0.00 0.00 0.00 57 1009.6
20260509212418 20 301 8.0 20.9 0.00 0.00 0.00 59 1009.6
20260509211914 20 332 3.2 9.7 0.00 0.00 0.00 58 1009.5
20260509211410 21 294 4.8 12.9 0.00 0.00 0.00 57 1009.6
20260509210906 20 296 6.4 11.3 0.00 0.00 0.00 59 1009.7
20260509210404 21 316 4.8 11.3 0.00 0.00 0.00 59 1009.4
20260509205904 20 313 4.8 4.8 0.00 0.00 0.00 61 1009.6
20260509205403 20 148 1.6 9.7 0.00 0.00 0.00 57 1009.8
20260509204900 20 298 0.0 1.6 0.00 0.00 0.00 58 1009.6
20260509204356 20 260 8.0 11.3 0.00 0.00 0.00 60 1009.6
20260509203853 20 251 4.8 9.7 0.00 0.00 0.00 60 1009.5
20260509203349 20 311 12.9 22.5 0.00 0.00 0.00 59 1009.6
20260509202846 21 323 4.8 9.7 0.00 0.00 0.00 57 1009.6
20260509202342 20 317 6.4 6.4 0.00 0.00 0.00 63 1009.7
20260509201837 20 309 4.8 12.9 0.00 0.00 0.00 59 1009.9
20260509201333 20 314 11.3 17.7 0.00 0.00 0.00 61 1009.9
20260509200830 20 317 3.2 9.7 0.00 0.00 0.00 64 1009.8
20260509200325 20 285 6.4 6.4 0.00 0.00 0.00 62 1009.9
20260509195822 19 312 11.3 14.5 0.00 0.00 0.00 60 1009.8
20260509195322 19 324 9.7 14.5 0.00 0.00 0.00 63 1010.1
20260509194816 19 327 9.7 16.1 0.00 0.00 0.00 63 1010.1
20260509194313 20 322 3.2 9.7 0.00 0.00 0.00 60 1010.2
20260509193810 20 327 8.0 14.5 0.00 0.00 0.00 64 1010.3
20260509193310 19 247 6.4 9.7 0.00 0.00 0.00 59 1010.2
20260509192806 18 262 4.8 6.4 0.00 0.00 0.00 62 1010.1
20260509192305 18 322 3.2 4.8 0.00 0.00 0.00 63 1010.1
20260509191757 18 227 4.8 6.4 0.00 0.00 0.00 61 1010.2
20260509191254 18 249 8.0 11.3 0.00 0.00 0.00 62 1010.2
20260509190749 18 177 11.3 14.5 0.00 0.00 0.00 62 1010.0
20260509190247 18 312 9.7 12.9 0.00 0.00 0.00 62 1010.1
20260509185744 18 261 4.8 6.4 0.00 0.00 0.00 62 1010.0
20260509185240 18 229 4.8 9.7 0.00 0.00 0.00 61 1010.0
20260509184738 18 316 8.0 14.5 0.00 0.00 0.00 61 1010.1
20260509184235 18 313 8.0 12.9 0.00 0.00 0.00 58 1010.2
20260509183732 18 307 3.2 9.7 0.00 0.00 0.00 59 1010.1
20260509183227 18 311 6.4 9.7 0.00 0.00 0.00 62 1010.2
20260509182722 18 255 4.8 12.9 0.00 0.00 0.00 60 1010.1
20260509182220 18 291 4.8 14.5 0.00 0.00 0.00 58 1010.3
20260509181717 18 273 6.4 14.5 0.00 0.00 0.00 61 1010.3
20260509181215 18 247 6.4 17.7 0.00 0.00 0.00 59 1010.3
20260509180712 18 247 9.7 14.5 0.00 0.00 0.00 60 1010.0
20260509180208 18 316 4.8 11.3 0.00 0.00 0.00 57 1010.2
20260509175705 18 313 6.4 16.1 0.00 0.00 0.00 57 1010.2
20260509175201 18 197 3.2 11.3 0.00 0.00 0.00 58 1010.4
20260509174656 18 193 0.0 9.7 0.00 0.00 0.00 56 1010.1
20260509174151 17 314 4.8 11.3 0.00 0.00 0.00 59 1010.3
20260509173648 17 239 3.2 9.7 0.00 0.00 0.00 58 1010.4
20260509173143 17 240 6.4 9.7 0.00 0.00 0.00 57 1010.6
20260509172640 17 317 4.8 9.7 0.00 0.00 0.00 57 1010.4
20260509172136 17 255 6.4 6.4 0.00 0.00 0.00 60 1010.6
20260509171632 17 281 3.2 9.7 0.00 0.00 0.00 60 1010.6
20260509171129 16 241 3.2 6.4 0.00 0.00 0.00 61 1010.5
20260509170625 16 260 3.2 6.4 0.00 0.00 0.00 60 1011.1
20260509170121 16 264 0.0 3.2 0.00 0.00 0.00 60 1010.8
20260509165619 16 261 4.8 9.7 0.00 0.00 0.00 62 1010.9
20260509165115 17 263 4.8 6.4 0.00 0.00 0.00 59 1010.8
20260509164611 16 257 3.2 4.8 0.00 0.00 0.00 59 1010.7
20260509164107 16 177 3.2 12.9 0.00 0.00 0.00 59 1010.7
20260509163606 16 312 0.0 1.6 0.00 0.00 0.00 61 1010.6
20260509163100 16 323 6.4 11.3 0.00 0.00 0.00 60 1010.6
20260509162557 16 183 1.6 3.2 0.00 0.00 0.00 67 1010.5
20260509162053 16 329 3.2 11.3 0.00 0.00 0.00 64 1010.5
20260509161550 16 321 3.2 4.8 0.00 0.00 0.00 67 1010.6
20260509161045 16 311 3.2 4.8 0.00 0.00 0.00 71 1010.5
20260509160541 16 279 3.2 3.2 0.00 0.00 0.00 68 1010.6
20260509160037 16 91 1.6 1.6 0.00 0.00 0.00 72 1010.8
20260509155533 16 310 0.0 3.2 0.00 0.00 0.00 73 1010.5
20260509155030 16 293 0.0 0.0 0.00 0.00 0.00 71 1010.4
20260509154526 15 248 0.0 3.2 0.00 0.00 0.00 72 1010.4
20260509154024 15 135 0.0 0.0 0.00 0.00 0.00 72 1010.5
20260509153520 15 288 0.0 1.6 0.00 0.00 0.00 74 1010.5
20260509153017 15 307 3.2 4.8 0.00 0.00 0.00 73 1010.4
20260509152513 15 310 3.2 3.2 0.00 0.00 0.00 72 1010.5
20260509152009 15 133 1.6 3.2 0.00 0.00 0.00 72 1010.5
20260509151506 16 233 0.0 6.4 0.00 0.00 0.00 71 1010.3
20260509151005 16 63 4.8 4.8 0.00 0.00 0.00 72 1010.5
20260509150501 16 8 1.6 1.6 0.00 0.00 0.00 71 1010.5
20260509150000 16 88 3.2 11.3 0.00 0.00 0.00 70 1010.4
20260509145455 16 14 1.6 1.6 0.00 0.00 0.00 73 1010.5
20260509144950 16 291 3.2 4.8 0.00 0.00 0.00 69 1010.7
20260509144448 15 305 0.0 1.6 0.00 0.00 0.00 75 1010.6
20260509143944 15 154 1.6 3.2 0.00 0.00 0.00 73 1010.8
20260509143442 15 294 0.0 0.0 0.00 0.00 0.00 74 1010.8
20260509142938 15 75 3.2 3.2 0.00 0.00 0.00 73 1010.7
20260509142434 15 105 3.2 3.2 0.00 0.00 0.00 74 1010.7
20260509141930 15 49 0.0 0.0 0.00 0.00 0.00 75 1010.6
20260509141427 15 48 1.6 3.2 0.00 0.00 0.00 75 1010.5
20260509140924 15 265 0.0 0.0 0.00 0.00 0.00 75 1010.8
20260509140420 15 266 0.0 0.0 0.00 0.00 0.00 76 1010.9
20260509135919 15 235 3.2 4.8 0.00 0.00 0.00 76 1010.9
20260509135416 15 235 3.2 4.8 0.00 0.00 0.00 76 1010.9
20260509134913 15 228 1.6 3.2 0.00 0.00 0.00 77 1010.9
20260509134410 -17 0.0 0.0 0.00 0.00 0.00 1010.6
20260509133907 -17 0.0 0.0 0.00 0.00 0.00 1010.7
20260509133404 -17 0.0 0.0 0.00 0.00 0.00 1010.8
20260509132903 -17 0.0 0.0 0.00 0.00 0.00 1010.9
20260509132400 -17 0.0 0.0 0.00 0.00 0.00 1010.9
20260509131857 -17 0.0 0.0 0.00 0.00 0.00 1010.8
20260509131354 -17 0.0 0.0 0.00 0.00 0.00 1011.1
20260509130851 11 278 0.0 0.0 0.00 0.00 0.00 92 1011.2
20260509130346 11 278 0.0 0.0 0.00 0.00 0.00 92 1011.2
20260509125843 -17 0.0 0.0 0.00 0.00 0.00 1011.2
20260509125339 -17 0.0 0.0 0.00 0.00 0.00 1011.2
20260509124836 -17 0.0 0.0 0.00 0.00 0.00 1011.4
20260509124333 -17 0.0 0.0 0.00 0.00 0.00 1011.4
20260509123831 11 278 0.0 0.0 0.00 0.00 0.00 92 1011.5
20260509123327 11 278 0.0 0.0 0.00 0.00 0.00 92 1011.5
20260509122823 11 278 0.0 0.0 0.00 0.00 0.00 93 1011.4
20260509122320 11 278 0.0 0.0 0.00 0.00 0.00 93 1011.4
20260509121817 11 278 0.0 0.0 0.00 0.00 0.00 94 1011.3
20260509121314 11 278 0.0 0.0 0.00 0.00 0.00 94 1011.3
20260509120813 11 278 0.0 0.0 0.00 0.00 0.00 94 1011.3
20260509120310 11 278 0.0 0.0 0.00 0.00 0.00 94 1011.3
20260509115808 10 274 0.0 0.0 0.00 0.00 0.00 94 1011.2
20260509115307 10 274 0.0 0.0 0.00 0.00 0.00 94 1011.3
20260509114803 10 274 0.0 0.0 0.00 0.00 0.00 95 1011.3
20260509114301 10 256 0.0 0.0 0.00 0.00 0.00 94 1011.1
20260509113800 10 256 0.0 0.0 0.00 0.00 0.00 94 1011.1
20260509113256 10 256 0.0 0.0 0.00 0.00 0.00 94 1011.1
20260509112753 10 310 0.0 0.0 0.00 0.00 0.00 94 1010.8
20260509112250 10 310 1.6 1.6 0.00 0.00 0.00 94 1010.9
20260509111747 10 310 1.6 1.6 0.00 0.00 0.00 94 1010.8
20260509111244 10 310 0.0 0.0 0.00 0.00 0.00 93 1010.7
20260509110742 10 310 0.0 0.0 0.00 0.00 0.00 93 1010.9
20260509110238 10 310 0.0 0.0 0.00 0.00 0.00 93 1010.9
20260509105736 10 309 0.0 0.0 0.00 0.00 0.00 93 1010.7
20260509105234 10 310 0.0 0.0 0.00 0.00 0.00 92 1010.7
20260509104730 10 310 0.0 0.0 0.00 0.00 0.00 92 1010.8
20260509104227 10 310 0.0 0.0 0.00 0.00 0.00 92 1010.7
20260509103726 10 310 0.0 0.0 0.00 0.00 0.00 93 1010.7
20260509103222 -17 0.0 0.0 0.00 0.00 0.00 1010.9
20260509102721 -17 0.0 0.0 0.00 0.00 0.00 1010.8
20260509102217 -17 0.0 0.0 0.00 0.00 0.00 1010.8
20260509101714 -17 0.0 0.0 0.00 0.00 0.00 1010.7
20260509101210 10 310 0.0 0.0 0.00 0.00 0.00 94 1010.9
20260509100708 10 310 0.0 0.0 0.00 0.00 0.00 94 1010.7
20260509100205 10 310 0.0 0.0 0.00 0.00 0.00 93 1010.7
20260509095702 10 310 0.0 0.0 0.00 0.00 0.00 92 1010.7
20260509095159 10 310 0.0 0.0 0.00 0.00 0.00 92 1010.8
20260509094655 10 310 0.0 0.0 0.00 0.00 0.00 92 1010.5
20260509094152 10 310 0.0 0.0 0.00 0.00 0.00 92 1010.7
20260509093651 10 309 0.0 0.0 0.00 0.00 0.00 91 1010.7
20260509093147 10 309 0.0 0.0 0.00 0.00 0.00 91 1010.9
20260509092646 10 309 0.0 0.0 0.00 0.00 0.00 92 1010.6
20260509092143 10 309 0.0 0.0 0.00 0.00 0.00 92 1010.9
20260509091641 10 309 0.0 0.0 0.00 0.00 0.00 91 1011.1
20260509091136 10 309 0.0 0.0 0.00 0.00 0.00 91 1010.8
20260509090635 10 309 0.0 0.0 0.00 0.00 0.00 92 1010.9
20260509090131 10 309 0.0 0.0 0.00 0.00 0.00 92 1010.8
20260509085629 10 309 0.0 0.0 0.00 0.00 0.00 93 1011.3
20260509085124 10 309 0.0 0.0 0.00 0.00 0.00 93 1011.1
20260509084622 10 310 0.0 0.0 0.00 0.00 0.00 91 1011.3
20260509084119 10 310 0.0 0.0 0.00 0.00 0.00 91 1010.9
20260509083616 10 310 0.0 0.0 0.00 0.00 0.00 92 1011.3
20260509083112 -17 0.0 0.0 0.00 0.00 0.00 1011.1
20260509082611 -17 0.0 0.0 0.00 0.00 0.00 1011.4
20260509082107 11 310 0.0 0.0 0.00 0.00 0.00 91 1011.4
20260509081605 11 310 0.0 0.0 0.00 0.00 0.00 91 1011.3
20260509081102 11 310 0.0 0.0 0.00 0.00 0.00 91 1011.2
20260509080600 11 310 0.0 0.0 0.00 0.00 0.00 91 1011.1
20260509080057 11 309 0.0 0.0 0.00 0.00 0.00 91 1011.2
20260509075554 11 309 0.0 0.0 0.00 0.00 0.00 92 1011.1
20260509075052 11 310 0.0 0.0 0.00 0.00 0.00 91 1011.3
20260509074549 11 310 0.0 0.0 0.00 0.00 0.00 92 1011.1
20260509074045 11 310 0.0 1.6 0.00 0.00 0.00 92 1011.2
20260509073542 11 310 0.0 1.6 0.00 0.00 0.00 92 1011.4
20260509073038 11 144 0.0 0.0 0.00 0.00 0.00 92 1010.9
20260509072535 11 144 0.0 0.0 0.00 0.00 0.00 92 1011.3
20260509072032 11 144 0.0 0.0 0.00 0.00 0.00 92 1010.7
20260509071528 11 144 0.0 0.0 0.00 0.00 0.00 89 1010.6
20260509071026 11 144 0.0 0.0 0.00 0.00 0.00 89 1010.7
20260509070523 11 144 0.0 0.0 0.00 0.00 0.00 89 1010.6
20260509070019 11 144 0.0 0.0 0.00 0.00 0.00 90 1010.5
20260509065514 11 144 0.0 0.0 0.00 0.00 0.00 90 1010.5
20260509065011 11 144 0.0 0.0 0.00 0.00 0.00 90 1010.5
20260509064509 11 144 0.0 0.0 0.00 0.00 0.00 90 1010.4
20260509064007 11 144 0.0 0.0 0.00 0.00 0.00 91 1010.6
20260509063502 11 144 0.0 0.0 0.00 0.00 0.00 91 1010.6
20260509062959 11 144 0.0 0.0 0.00 0.00 0.00 89 1010.5
20260509062456 11 144 0.0 0.0 0.00 0.00 0.00 88 1010.6
20260509061954 11 144 0.0 0.0 0.00 0.00 0.00 88 1010.6
20260509061451 11 144 0.0 0.0 0.00 0.00 0.00 88 1010.7
20260509060948 11 144 0.0 0.0 0.00 0.00 0.00 88 1010.6
20260509060446 11 144 0.0 0.0 0.00 0.00 0.00 88 1010.7
20260509055941 11 144 0.0 0.0 0.00 0.00 0.00 89 1010.7
20260509055436 11 144 0.0 0.0 0.00 0.00 0.00 88 1010.9
20260509054933 11 144 0.0 0.0 0.00 0.00 0.00 88 1011.2
20260509054430 11 144 0.0 0.0 0.00 0.00 0.00 90 1010.8
20260509053928 11 144 0.0 0.0 0.00 0.00 0.00 88 1011.1
20260509053426 11 144 0.0 0.0 0.00 0.00 0.00 89 1011.1
20260509052923 11 144 0.0 0.0 0.00 0.00 0.00 89 1010.9
20260509052420 11 144 0.0 0.0 0.00 0.00 0.00 90 1011.1
20260509051918 11 144 0.0 0.0 0.00 0.00 0.00 88 1011.3
20260509051416 11 144 0.0 0.0 0.00 0.00 0.00 88 1011.2
20260509050912 11 144 0.0 0.0 0.00 0.00 0.00 87 1010.9
20260509050409 11 144 0.0 0.0 0.00 0.00 0.00 86 1011.1
20260509045906 11 144 0.0 0.0 0.00 0.00 0.00 85 1010.8
20260509045403 11 144 0.0 0.0 0.00 0.00 0.00 86 1011.1
20260509044900 11 144 0.0 0.0 0.00 0.00 0.00 88 1011.1
20260509044358 11 144 0.0 0.0 0.00 0.00 0.00 89 1010.9
20260509043854 11 144 0.0 0.0 0.00 0.00 0.00 89 1011.1
20260509043350 11 144 0.0 0.0 0.00 0.00 0.00 88 1011.2
20260509042846 11 144 0.0 0.0 0.00 0.00 0.00 86 1011.2
20260509042343 11 144 0.0 0.0 0.00 0.00 0.00 85 1011.4
20260509041840 11 144 0.0 0.0 0.00 0.00 0.00 87 1011.2
20260509041336 11 144 0.0 0.0 0.00 0.00 0.00 90 1011.2
20260509040835 11 144 0.0 0.0 0.00 0.00 0.00 90 1011.4
20260509040332 11 144 0.0 0.0 0.00 0.00 0.00 88 1011.4
20260509035829 11 144 0.0 0.0 0.00 0.00 0.00 88 1011.5
20260509035326 11 144 0.0 0.0 0.00 0.00 0.00 89 1011.4
20260509034822 11 144 0.0 0.0 0.00 0.00 0.00 87 1011.4
20260509034320 11 144 0.0 0.0 0.00 0.00 0.00 86 1011.4
20260509033817 12 144 0.0 0.0 0.00 0.00 0.00 87 1011.6
20260509033314 12 144 0.0 0.0 0.00 0.00 0.00 87 1011.6
20260509032811 12 144 0.0 0.0 0.00 0.00 0.00 84 1011.6
20260509032308 12 144 0.0 0.0 0.00 0.00 0.00 84 1011.7
20260509031806 12 144 0.0 0.0 0.00 0.00 0.00 84 1011.7
20260509031303 12 144 0.0 0.0 0.00 0.00 0.00 84 1011.6
20260509030800 12 144 0.0 0.0 0.00 0.00 0.00 84 1011.7
20260509030258 12 144 0.0 0.0 0.00 0.00 0.00 84 1011.8
20260509025754 12 144 0.0 0.0 0.00 0.00 0.00 84 1012.0
20260509025250 12 144 0.0 0.0 0.00 0.00 0.00 85 1011.9
20260509024746 12 144 0.0 0.0 0.00 0.00 0.00 83 1011.9
20260509024242 12 144 0.0 0.0 0.00 0.00 0.00 82 1011.7
20260509023739 12 144 0.0 0.0 0.00 0.00 0.00 82 1012.0
20260509023236 12 144 0.0 0.0 0.00 0.00 0.00 83 1012.1
20260509022732 12 144 0.0 0.0 0.00 0.00 0.00 83 1012.0
20260509022230 12 144 0.0 0.0 0.00 0.00 0.00 85 1011.9
20260509021727 12 144 0.0 0.0 0.00 0.00 0.00 86 1011.9
20260509021224 12 144 0.0 0.0 0.00 0.00 0.00 82 1012.0
20260509020722 12 144 0.0 0.0 0.00 0.00 0.00 80 1011.8
20260509020219 12 144 0.0 0.0 0.00 0.00 0.00 81 1011.8
20260509015717 12 144 0.0 0.0 0.00 0.00 0.00 84 1011.9
20260509015215 12 144 0.0 0.0 0.00 0.00 0.00 83 1012.0
20260509014711 12 144 0.0 0.0 0.00 0.00 0.00 84 1011.8
20260509014208 12 144 0.0 0.0 0.00 0.00 0.00 81 1011.9
20260509013705 13 144 0.0 0.0 0.00 0.00 0.00 79 1011.7
20260509013200 13 144 0.0 0.0 0.00 0.00 0.00 81 1011.9
20260509012657 13 144 0.0 0.0 0.00 0.00 0.00 79 1011.8
20260509012154 13 144 0.0 0.0 0.00 0.00 0.00 78 1011.8
20260509011652 13 144 0.0 0.0 0.00 0.00 0.00 77 1011.7
20260509011149 13 144 0.0 0.0 0.00 0.00 0.00 77 1011.8
20260509010647 13 144 0.0 0.0 0.00 0.00 0.00 78 1011.9
20260509010143 13 144 0.0 0.0 0.00 0.00 0.00 77 1011.6
20260509005641 13 144 0.0 0.0 0.00 0.00 0.00 74 1011.8
20260509005137 13 144 0.0 0.0 0.00 0.00 0.00 72 1011.4
20260509004633 13 144 0.0 0.0 0.00 0.00 0.00 78 1011.5
20260509004130 13 144 0.0 0.0 0.00 0.00 0.00 77 1011.5
20260509003628 13 144 0.0 0.0 0.00 0.00 0.00 75 1011.4
20260509003125 13 143 0.0 0.0 0.00 0.00 0.00 74 1011.4
20260509002623 13 144 0.0 0.0 0.00 0.00 0.00 70 1011.4
20260509002120 14 144 0.0 0.0 0.00 0.00 0.00 73 1011.6
20260509001618 14 143 0.0 1.6 0.00 0.00 0.00 68 1011.5
20260509001113 14 143 0.0 1.6 0.00 0.00 0.00 67 1011.5
20260509000612 15 152 1.6 3.2 0.00 0.00 0.00 65 1011.4
20260509000108 16 315 0.0 3.2 0.00 0.00 0.00 60 1010.9
20260508235605 16 130 0.0 0.0 0.00 0.00 0.00 63 1010.7
20260508235101 17 184 0.0 3.2 0.00 0.00 0.00 60 1011.2
20260508234559 17 190 0.0 0.0 0.00 0.00 0.00 54 1011.3
20260508234055 17 150 0.0 3.2 0.00 0.00 0.00 57 1011.5
20260508233550 18 317 1.6 3.2 0.00 0.00 0.00 42 1011.3
20260508233047 18 252 1.6 3.2 0.00 0.00 0.00 53 1011.2
20260508232543 18 323 0.0 3.2 0.00 0.00 0.00 45 1011.1
20260508232040 19 224 1.6 3.2 0.00 0.00 0.00 42 1011.2
20260508231538 19 271 1.6 4.8 0.00 0.00 0.00 40 1011.3
20260508231035 19 298 6.4 6.4 0.00 0.00 0.00 40 1011.4
20260508230532 19 309 6.4 6.4 0.00 0.00 0.00 38 1011.3
20260508230028 19 314 4.8 6.4 0.00 0.00 0.00 40 1011.2
20260508225525 19 220 3.2 6.4 0.00 0.00 0.00 43 1011.2
20260508225022 20 236 1.6 4.8 0.00 0.00 0.00 39 1010.9
20260508224520 20 312 4.8 9.7 0.00 0.00 0.00 37 1011.3
20260508224017 20 219 3.2 6.4 0.00 0.00 0.00 38 1011.2
20260508223515 19 307 8.0 12.9 0.00 0.00 0.00 38 1011.3
20260508223012 20 275 4.8 12.9 0.00 0.00 0.00 37 1011.2